Location: Paolisi
(41.0333°N, 14.5833°E)
Time: 14:32:52
(UTC+00:00)

Daily predictions for brighter satellites

Satellite Brightness Start Highest point End
(mag) Time Altitude Azimuth Time Altitude Azimuth Time Altitude Azimuth
NOAA 12 4.2 16:31:02 10° SSE 16:36:16 83° WSW 16:41:31 10° NNW
Cosmos 1603 4.1 16:33:05 10° NNW 16:38:47 72° WSW 16:44:29 10° SSE
Cosmos 1777 Rocket 4.0 16:35:59 10° S 16:41:13 75° ESE 16:46:31 10° NNE
Cosmos 1538 Rocket 4.4 16:36:29 10° N 16:41:22 40° ENE 16:46:12 10° SE
ATLAS 5 CENTAUR R/B 3.1 16:37:53 10° WSW 16:41:25 29° NW 16:45:20 10° NNE
H-2A R/B 3.1 16:39:11 10° S 16:43:06 59° WSW 16:47:14 10° NNW
CZ-2D R/B 4.0 16:40:41 10° SE 16:44:03 30° ENE 16:47:26 10° N
Cosmos 2279 Rocket 4.0 16:38:06 10° N 16:44:22 71° E 16:50:35 10° SSE
COSMO-SKYMED 1 3.0 16:40:58 10° NNE 16:45:05 41° E 16:49:11 10° S
CSL-04 DEB 4.4 16:44:28 10° NNE 16:48:39 67° ESE 16:52:40 10° S
Lacrosse 5 2.7 16:45:42 10° NNW 16:50:11 31° NNE 16:54:39 10° E
FengYun 1-2 T 4.3 16:45:49 10° SSE 16:51:22 86° WSW 16:57:00 10° NNW
Aureole 3 4.3 16:49:41 10° NNE 16:51:56 17° ENE 16:54:02 10° ESE
ISS -3.8 16:53:16 10° SW 16:56:38 87° SE 16:59:24 14° NE
Okean-O 3.6 16:54:37 10° SE 16:58:17 26° ENE 17:01:58 10° NNE
Okean O Rocket 2.2 16:54:53 10° S 16:59:17 62° WSW 17:03:42 10° NNW
Cosmos 2263 Rocket 3.9 16:59:09 10° WSW 17:04:09 31° WNW 17:09:09 10° N
Helios 1A Rocket 4.1 17:03:10 10° ESE 17:06:25 23° ENE 17:09:41 10° NNE
Aureole 2 Rocket 1.9 17:04:52 10° SSW 17:07:50 85° ESE 17:10:55 10° NNE
SKYMED 3 4.5 17:04:46 10° NNE 17:09:07 78° ESE 17:13:27 10° S
Cosmos 1455 2.7 17:07:38 10° N 17:11:12 37° ENE 17:14:45 10° SSE
Cosmos 1340 4.1 17:10:52 10° SE 17:13:18 19° E 17:13:18 19° E
YAOGAN 1 3.1 17:10:23 10° SE 17:14:18 35° ENE 17:18:16 10° N
Cosmos 1892 Rocket 4.0 17:10:59 10° SSW 17:15:18 65° W 17:19:37 10° N
NOSS 2-1 (C) 4.1 17:12:44 10° S 17:15:34 23° ESE 17:16:13 22° E
H-2A R/B 3.8 17:11:40 10° N 17:15:38 33° WNW 17:19:31 10° SW
ARGOS 3.9 17:12:30 10° SE 17:17:03 29° ENE 17:21:38 10° N
Cosmos 1689 Rocket 2.5 17:17:53 29° ENE 17:18:41 36° E 17:21:20 10° SSE
Cosmos 1703 3.8 17:17:26 10° SSE 17:20:56 34° E 17:22:57 20° NE
NOSS 2-1 (D) 3.9 17:18:26 10° S 17:21:25 27° ESE 17:21:57 26° E
USA 267 4.2 17:19:54 19° E 17:23:18 28° SE 17:28:45 10° S
Cosmos 1092 Rocket 4.2 17:18:08 10° SSE 17:24:00 46° E 17:29:51 10° NNE
ERS-2 2.0 17:20:54 10° NNE 17:24:32 71° ESE 17:28:08 10° S
BREEZE-M DEB (TANK) 3.4 17:23:53 10° WNW 17:26:32 34° SW 17:28:28 11° SSE
IRS-1C Rocket 4.0 17:22:32 10° SSE 17:27:47 81° ENE 17:33:04 10° NNW
CZ-2C R/B 3.6 17:26:41 21° ENE 17:29:01 28° E 17:33:45 10° SSE
SJ 16-02 1.3 17:25:38 10° SSW 17:30:02 87° WNW 17:34:28 10° NNE
CZ-4B R/B 2.8 17:27:12 10° N 17:30:22 39° WNW 17:33:27 10° SW
BREEZE-M DEB (TANK) 4.1 17:29:31 10° NNW 17:30:28 14° N 17:30:28 14° N
Cosmos 1812 Rocket 4.2 17:26:59 10° NNE 17:30:55 31° ENE 17:34:49 10° SE
SKYMED 2 4.2 17:28:52 10° N 17:33:07 56° WNW 17:37:21 10° SSW
Cosmos 1844 3.7 17:33:18 10° SSW 17:38:56 89° WNW 17:44:19 12° NNE
EXPRESS MD2 3.8 17:32:10 10° WNW 17:39:39 83° NNE 17:41:34 31° ESE
Cosmos 1833 Rocket 4.3 17:36:26 10° N 17:38:57 17° NNE 17:38:57 17° NNE
Nadezhda 4 Rocket 4.1 17:34:01 10° S 17:40:17 79° W 17:46:31 10° N
Cosmos 158 Rocket 4.0 17:35:24 10° NNW 17:40:45 67° ENE 17:46:06 10° SSE
Cosmos 923 Rocket 4.0 17:37:46 10° NNW 17:43:05 63° ENE 17:48:19 10° SSE
H-2A R/B 1.8 17:39:12 10° SSE 17:44:07 70° ENE 17:49:11 10° N
Cosmos 2082 Rocket 4.3 17:42:03 10° NNE 17:42:06 10° NNE 17:42:06 10° NNE
Cosmos 1898 Rocket 3.6 17:41:10 10° S 17:46:16 53° ESE 17:48:38 30° NE
CZ-2C R/B 3.6 17:42:35 10° S 17:47:46 63° W 17:53:17 10° NNW
Cosmos 2058 Rocket 4.4 17:44:49 10° NNW 17:49:04 43° W 17:53:19 10° SSW
Cosmos 1328 3.8 17:45:53 10° S 17:49:49 56° E 17:50:12 53° ENE
Cosmos 1680 Rocket 3.5 17:44:56 10° N 17:50:05 54° ENE 17:53:32 20° SE
COSMOS 2455 4.1 17:46:56 10° WSW 17:52:28 37° NW 17:58:02 10° NNE
PSLV R/B 4.3 17:49:44 10° N 17:53:55 64° WNW 17:58:04 10° SSW
SJ-11-01 4.1 17:49:44 10° SSE 17:54:26 81° ENE 17:59:08 10° N
CZ-4 R/B 1.8 17:51:19 10° S 17:55:25 65° W 17:59:26 10° NNW
Cosmos 2098 Rocket 4.4 17:48:50 10° SSE 17:55:36 55° E 18:02:50 10° NNE
USA 234 4.3 17:55:48 24° NE 17:57:28 27° NNE 18:02:44 10° NW
Hubble Space Telescope 3.1 17:55:18 10° SSW 17:57:33 14° S 17:58:37 13° SSE
Cosmos 1844 Rocket 3.5 17:52:21 10° SW 17:57:50 51° WNW 18:03:17 10° NNE
MOS 1 Rocket 4.4 17:54:05 10° N 17:58:06 40° WNW 18:02:05 10° SW
Cosmos 1818 4.5 17:55:16 10° SW 18:00:26 45° NW 18:04:19 17° NNE
Meteor 1-11 4.3 17:58:09 10° S 18:03:40 53° E 18:04:56 44° NE
Iridium 4 Rocket 3.4 17:59:32 10° N 18:05:11 77° E 18:10:20 10° S
Cosmos 1626 Rocket 4.3 18:03:00 10° SSW 18:07:15 52° W 18:11:35 10° N
Cosmos 2278 Rocket 3.2 18:04:13 10° S 18:07:29 29° SE 18:07:29 29° SE
X-37B 2.2 18:07:39 10° W 18:09:46 34° WNW 18:09:46 34° WNW
Meteor 2-19 Rocket 4.3 18:09:40 10° S 18:15:46 69° E 18:19:49 22° NNE
Cosmos 44 3.4 18:11:36 10° SW 18:16:18 70° NW 18:17:27 50° N
NOSS 2-1 (E) 4.1 18:13:03 10° SW 18:15:20 39° SW 18:15:20 39° SW
Cosmos 2026 Rocket 3.9 18:11:00 10° S 18:17:06 87° W 18:23:19 10° N
Cosmos 1553 Rocket 4.1 18:12:30 10° N 18:18:15 52° ENE 18:18:15 52° ENE
CSL-04 Rocket 3.6 18:14:33 10° SSE 18:19:56 84° WSW 18:25:26 10° NNW
Cosmos 1937 Rocket 3.4 18:14:40 10° SSW 18:19:56 78° ESE 18:20:19 74° ENE
Cosmos 2112 Rocket 4.0 18:22:37 10° NNW 18:27:52 81° WSW 18:28:49 60° S
Lacrosse 5 2.4 18:28:28 10° NW 18:33:23 55° SW 18:34:00 51° SSW
ISS -1.0 18:31:10 10° WNW 18:32:21 16° NW 18:32:21 16° NW
Meteor 2-15 4.4 18:35:48 10° N 18:41:58 84° W 18:48:07 10° S
Cosmos 2344 4.3 18:36:59 10° NNW 18:46:36 72° NE 18:51:01 46° ESE
NOSS 3-1 (C) 4.0 18:42:32 10° NW 18:50:16 87° NE 18:51:59 62° SE
USA 267 3.3 19:07:17 72° W 19:07:17 72° W 19:13:12 10° SW
USA 229 DEB 4.0 19:00:19 10° NW 19:06:38 68° NNW 19:06:38 68° NNW
USA 229 4.0 19:00:25 10° NNW 19:06:40 67° NNW 19:06:40 67° NNW
CZ-2C R/B 3.9 19:08:10 36° NW 19:09:22 40° WNW 19:14:33 10° SW
CZ-3B R/B 3.9 19:17:43 10° WNW 19:40:49 - SE 19:20:07 44° WNW
NOSS 3-1 (A) 4.3 19:15:41 10° NW 19:21:50 63° NNW 19:21:50 63° NNW
